Location: Moscow
(38.8570°N, 84.2291°W)
Time: 19:30:06
(UTC+00:00)

O/OREOS (USA 219) - Pass Details

Date: 20 March 2026
Orbit: 577 x 597 km, 72.0° (Epoch: 21 April)

Event Time Altitude Azimuth Distance (km) Brightness Sun altitude
Rises 00:05:01 0° 329° (NNW) 2,837 ? -4.1°
Reaches altitude 10° 00:07:23 10° 320° (NW) 1,928 ? -4.6°
Maximum altitude 00:11:18 34° 255° (WSW) 970 ? -5.4°
Drops below altitude 10° 00:15:10 10° 190° (S) 1,903 ? -6.1°
Sets 00:17:30 0° 181° (S) 2,794 ? -6.6°
